| time (UTC) | temp C | wind direction | speed KPH | gust KPH | rain 1hr cm | rain 24hr cm | rain mn cm | humidity % | barometer mb |
| 20260504090133 | -17 | 0 | 0.0 | 0.0 | 0.00 | 0.00 | 0.00 | 1005.7 | |
| 20260504081545 | -17 | 0 | 0.0 | 0.0 | 0.00 | 0.00 | 0.00 | 1005.8 | |
| 20260504044552 | -17 | 0 | 0.0 | 0.0 | 0.00 | 0.00 | 0.00 | 1007.2 | |
| 20260504043042 | -17 | 0 | 0.0 | 0.0 | 0.00 | 0.00 | 0.00 | 1007.3 | |
| 20260504041542 | -17 | 0 | 0.0 | 0.0 | 0.00 | 0.00 | 0.00 | 1007.4 | |
| 20260504034557 | -17 | 0 | 0.0 | 0.0 | 0.00 | 0.00 | 0.00 | 1007.8 | |
| 20260504033119 | -17 | 0 | 0.0 | 0.0 | 0.00 | 0.00 | 0.00 | 1007.9 | |
| 20260504031547 | -17 | 0 | 0.0 | 0.0 | 0.00 | 0.00 | 0.00 | 1008.1 | |
| 20260504030046 | -17 | 0 | 0.0 | 0.0 | 0.00 | 0.00 | 0.00 | 1008.3 | |
| 20260504024544 | -17 | 0 | 0.0 | 0.0 | 0.00 | 0.00 | 0.00 | 1008.1 | |
| 20260504023100 | -17 | 0 | 0.0 | 0.0 | 0.00 | 0.00 | 0.00 | 1008.0 | |
| 20260504021541 | -17 | 0 | 0.0 | 0.0 | 0.00 | 0.00 | 0.00 | 1007.9 | |
| 20260504020041 | -17 | 0 | 0.0 | 0.0 | 0.00 | 0.00 | 0.00 | 1007.9 | |
| 20260504014549 | -17 | 0 | 0.0 | 0.0 | 0.00 | 0.00 | 0.00 | 1008.0 | |
| 20260504013103 | -17 | 0 | 0.0 | 0.0 | 0.00 | 0.00 | 0.00 | 1007.8 | |
| 20260504011547 | -17 | 0 | 0.0 | 0.0 | 0.00 | 0.00 | 0.00 | 1007.9 | |
| 20260504010054 | -17 | 0 | 0.0 | 0.0 | 0.00 | 0.00 | 0.00 | 1007.8 | |
| 20260504004557 | -17 | 0 | 0.0 | 0.0 | 0.00 | 0.00 | 0.00 | 1007.8 | |
| 20260504003043 | -17 | 0 | 0.0 | 0.0 | 0.00 | 0.00 | 0.00 | 1007.8 | |
| 20260504001549 | -17 | 0 | 0.0 | 1.6 | 0.00 | 0.00 | 0.00 | 1008.0 | |
| 20260504000046 | -17 | 0 | 0.0 | 1.6 | 0.00 | 0.00 | 0.00 | 1007.8 | |
| 20260503234547 | -17 | 0 | 0.0 | 3.2 | 0.00 | 0.00 | 0.00 | 1008.0 | |
| 20260503233043 | -17 | 221 | 0.0 | 4.8 | 0.00 | 0.00 | 0.00 | 1007.9 | |
| 20260503231543 | -17 | 0 | 0.0 | 4.8 | 0.00 | 0.00 | 0.00 | 1007.8 | |
| 20260503230057 | -17 | 202 | 0.0 | 4.8 | 0.00 | 0.00 | 0.00 | 1007.9 | |
| 20260503224547 | -17 | 0 | 0.0 | 4.8 | 0.00 | 0.00 | 0.00 | 1007.9 | |
| 20260503223046 | -17 | 174 | 0.0 | 3.2 | 0.00 | 0.00 | 0.00 | 1007.8 | |
| 20260503221543 | -17 | 0 | 0.0 | 6.4 | 0.00 | 0.00 | 0.00 | 1008.1 | |
| 20260503220048 | -17 | 0 | 0.0 | 4.8 | 0.00 | 0.00 | 0.00 | 1007.8 | |
| 20260503214546 | -17 | 0 | 0.0 | 6.4 | 0.00 | 0.00 | 0.00 | 1007.9 | |
| 20260503213059 | -17 | 184 | 3.2 | 17.7 | 0.00 | 0.00 | 0.00 | 1007.6 | |
| 20260503211541 | -17 | 94 | 1.6 | 11.3 | 0.00 | 0.00 | 0.00 | 1008.4 | |
| 20260503210053 | -17 | 184 | 3.2 | 16.1 | 0.00 | 0.00 | 0.00 | 1007.9 | |
| 20260503204553 | -17 | 184 | 1.6 | 11.3 | 0.00 | 0.00 | 0.00 | 1008.0 | |
| 20260503203050 | -17 | 0 | 1.6 | 9.7 | 0.00 | 0.00 | 0.00 | 1008.0 | |
| 20260503201551 | -17 | 192 | 1.6 | 8.0 | 0.00 | 0.00 | 0.00 | 1008.9 | |
| 20260503200057 | -17 | 0 | 1.6 | 12.9 | 0.00 | 0.00 | 0.00 | 1008.2 | |
| 20260503194549 | -17 | 0 | 0.0 | 6.4 | 0.00 | 0.00 | 0.00 | 1009.1 | |
| 20260503193054 | -17 | 211 | 0.0 | 8.0 | 0.00 | 0.00 | 0.00 | 1009.0 | |
| 20260503191543 | -17 | 141 | 1.6 | 9.7 | 0.00 | 0.00 | 0.00 | 1009.3 | |
| 20260503190042 | -17 | 236 | 1.6 | 16.1 | 0.00 | 0.00 | 0.00 | 1010.2 | |
| 20260503184552 | -17 | 240 | 1.6 | 14.5 | 0.00 | 0.00 | 0.00 | 1008.8 | |
| 20260503183101 | -17 | 207 | 1.6 | 14.5 | 0.00 | 0.00 | 0.00 | 1010.3 | |
| 20260503181544 | -17 | 0 | 3.2 | 14.5 | 0.00 | 0.00 | 0.00 | 1009.7 | |
| 20260503180050 | -17 | 189 | 1.6 | 9.7 | 0.00 | 0.00 | 0.00 | 1010.1 | |
| 20260503174547 | -17 | 241 | 3.2 | 12.9 | 0.00 | 0.00 | 0.00 | 1010.6 | |
| 20260503173111 | -17 | 0 | 1.6 | 14.5 | 0.00 | 0.00 | 0.00 | 1010.6 | |
| 20260503171548 | -17 | 133 | 4.8 | 12.9 | 0.00 | 0.00 | 0.00 | 1010.8 |